Theta_e
310 310 309 310 310 310 309 309 309 309 308 307 308 307 307 307 310 314 317 314 311 311 307 308 308 309 307 308 307 311 311 311 311 308 305 305 305 305 305 304 304 304 306 307 307 310 310
309 308 308 309 309 309 309 309 308 308 308 307 306 307 307 307 310 312 316 313 311 309 309 307 309 308 307 308 304 308 308 309 307 306 305 305 305 306 306 305 305 304 305 305 305 306 306
308 308 307 308 308 307 307 309 308 308 308 307 307 306 307 307 309 313 313 311 309 309 308 308 309 308 308 306 303 304 306 305 305 305 305 305 305 306 306 306 306 306 307 307 307 306 306
306 306 306 306 306 305 306 307 308 306 307 308 307 306 306 306 308 313 312 309 307 305 307 308 308 309 309 304 304 304 304 304 305 305 305 305 305 306 306 306 306 307 307 308 307 308 306
304 304 305 307 306 306 306 305 306 308 308 307 308 306 306 305 307 309 312 308 305 305 307 308 310 309 307 303 302 303 304 305 305 305 305 305 305 307 307 307 307 307 308 307 308 308 307
304 304 305 305 306 307 306 306 306 307 305 305 307 306 306 306 309 310 309 305 306 309 309 308 307 307 305 306 305 305 305 305 305 306 306 307 308 308 308 308 305 307 309 311 310 308 307
305 304 305 303 306 304 306 307 307 306 305 305 306 306 305 308 311 309 305 308 308 308 307 306 307 306 305 305 304 305 305 305 305 305 306 306 307 307 306 307 306 306 310 309 309 308 307
305 305 304 304 305 304 303 304 303 304 304 305 306 305 305 306 307 306 305 306 306 307 307 305 306 306 306 306 307 306 306 306 307 308 306 308 309 307 306 308 309 310 310 310 310 309 309
304 304 304 304 305 304 305 305 305 304 305 305 305 305 305 306 306 306 305 306 305 305 309 307 306 308 308 307 308 308 306 307 309 311 311 311 310 309 309 309 309 311 310 310 312 312 310
304 305 304 304 305 304 305 304 303 304 304 305 304 304 305 308 307 305 306 305 306 305 315 308 309 309 308 307 309 308 307 308 309 310 310 310 308 310 310 310 309 310 310 310 311 313 317
303 304 304 304 304 305 304 303 305 304 304 302 304 306 308 307 306 305 306 305 306 305 319 308 309 307 309 310 311 310 306 306 310 311 308 313 312 309 309 310 309 308 310 317 312 317 316
301 302 304 304 305 305 304 304 304 304 304 302 304 304 306 306 306 305 305 305 305 312 311 308 310 311 311 311 312 310 309 307 308 310 310 311 310 311 311 313 313 312 314 315 313 316 324
305 302 302 304 305 304 305 304 305 304 304 303 302 305 307 305 306 304 305 305 312 316 305 310 312 311 312 314 313 314 315 314 315 317 313 315 315 313 313 316 314 313 315 322 324 325 326
310 304 302 304 304 303 302 303 305 303 303 302 304 305 305 305 304 303 304 310 312 308 311 310 311 311 314 312 313 313 317 317 315 315 317 318 313 316 316 315 315 317 319 323 326 327 326
311 310 303 304 303 303 303 304 304 302 302 305 305 305 303 304 304 303 308 315 313 311 309 311 311 313 314 312 312 314 315 316 315 313 318 322 319 316 316 317 318 319 319 315 322 318 322
312 310 303 304 304 304 303 303 302 301 303 305 305 303 303 304 304 305 312 312 310 307 310 310 312 311 313 313 314 314 316 314 315 313 313 316 320 317 317 317 318 318 314 318 320 326 325
311 308 303 302 304 301 301 301 302 301 304 305 305 305 303 303 303 307 314 311 309 308 310 312 312 312 312 313 313 314 315 315 313 314 313 315 319 318 318 317 317 318 316 316 314 315 316
309 306 304 303 304 303 302 302 302 304 305 305 305 306 303 303 309 309 311 309 308 310 311 312 312 312 313 313 314 314 314 315 313 313 315 313 316 318 319 315 313 314 314 314 316 319 314
307 308 304 304 302 302 303 303 304 304 305 305 305 305 303 304 313 310 309 310 310 312 312 313 313 312 312 313 315 314 313 314 313 313 312 312 314 315 318 316 314 315 314 314 316 317 315
306 307 308 304 304 303 304 304 304 305 305 306 307 307 305 306 308 308 311 311 310 311 312 312 312 312 312 312 312 314 313 314 313 311 312 312 313 314 314 316 315 314 314 314 317 314 315
306 305 306 308 306 305 305 305 304 304 305 307 309 306 306 309 308 309 310 311 310 312 311 311 312 312 312 312 312 313 313 313 312 312 312 313 313 309 312 313 313 312 313 313 313 314 314
307 306 305 305 308 306 304 305 305 305 305 307 311 308 306 307 307 309 309 312 310 311 312 311 313 312 312 313 313 313 312 312 312 312 312 312 313 312 312 311 311 310 310 312 312 313 313
306 306 306 306 305 305 306 307 307 305 305 309 306 306 307 307 307 308 310 312 310 311 311 311 311 312 312 311 310 310 310 310 311 311 312 311 312 312 314 311 309 312 309 310 310 310 312
304 307 306 307 304 303 300 301 303 304 304 306 306 307 308 307 307 308 310 311 311 312 313 311 311 312 309 308 307 308 310 311 310 310 309 311 311 311 309 308 309 309 308 308 309 310 310
303 305 307 305 307 303 302 303 304 301 302 305 303 305 307 307 306 307 309 311 311 310 311 312 310 308 307 308 312 311 312 312 311 310 309 308 310 309 310 307 308 308 307 308 309 310 309
301 303 305 306 302 306 303 304 305 304 302 302 301 302 306 306 306 307 308 311 310 311 311 311 308 307 308 311 311 311 309 309 309 310 309 309 309 309 308 310 309 309 308 307 307 309 307
299 302 304 306 306 303 305 306 305 305 304 302 300 299 303 306 302 303 309 310 309 311 311 310 309 310 308 311 312 311 309 308 310 309 310 310 309 309 310 309 309 308 307 307 310 310 307
299 304 306 307 307 307 306 306 305 305 305 305 302 299 302 304 301 301 301 306 308 309 312 310 310 310 311 312 311 310 308 309 308 309 309 309 308 309 309 310 308 306 307 308 307 306 305
301 305 307 309 307 307 307 306 306 305 306 306 304 301 300 301 300 299 298 298 298 300 304 307 309 310 310 312 309 308 308 307 307 307 307 307 307 308 308 309 307 305 307 306 305 304 304
Wind_Speed
29 28 30 29 26 24 22 21 19 17 15 16 16 17 18 19 19 17 12 21 14 11 7 5 5 5 2 2 2 12 9 7 7 1 3 5 5 7 9 6 8 11 12 14 15 15 17
32 33 33 32 29 25 22 21 17 17 15 15 16 17 18 19 20 22 18 20 15 11 9 7 10 5 4 4 4 8 7 7 2 1 2 2 4 8 7 9 10 11 13 15 15 16 16
34 35 34 33 32 28 24 21 20 17 16 15 15 17 18 19 21 16 21 19 14 12 10 8 8 5 3 4 5 6 6 4 3 2 2 3 5 6 8 8 5 10 13 14 18 15 17
35 37 34 33 31 27 26 20 20 14 15 14 15 18 19 18 15 14 20 18 14 10 9 8 8 4 2 3 3 6 7 5 3 2 1 6 5 7 9 7 6 12 12 13 9 17 18
37 37 34 30 28 27 23 17 19 17 14 16 14 17 19 20 17 12 17 15 12 10 10 11 7 5 3 3 5 7 8 6 7 4 4 8 5 8 3 4 6 9 8 12 17 16 14
39 35 33 31 27 22 20 18 16 15 13 14 12 15 19 26 20 13 20 17 15 13 12 7 3 3 2 2 7 4 4 4 5 7 5 7 4 3 3 4 5 5 8 7 15 15 14
39 38 32 29 26 24 20 19 15 11 10 14 10 11 17 24 29 26 25 15 4 4 6 4 5 3 6 6 4 4 6 5 5 7 11 11 4 9 12 14 16 16 17 18 20 12 11
38 37 31 30 24 18 19 12 13 12 9 10 7 7 11 12 25 26 19 2 3 4 5 8 4 2 1 1 2 6 6 3 6 10 8 4 12 13 13 10 14 16 15 16 19 8 10
37 34 27 28 23 22 16 15 13 5 7 6 6 7 6 5 16 20 6 5 5 5 3 4 6 3 2 5 2 2 9 2 4 8 9 8 4 4 7 11 16 13 15 13 9 11 9
32 31 23 23 21 17 12 7 1 2 3 2 4 7 8 11 10 8 3 5 5 6 3 3 5 4 5 1 1 4 6 1 3 3 3 7 8 9 9 13 13 13 7 9 9 7 7
34 31 23 20 17 15 9 3 4 3 5 6 6 13 23 11 10 6 1 7 3 3 3 4 4 3 4 2 2 4 10 4 3 2 3 2 3 3 6 8 8 8 6 14 12 6 11
31 26 23 18 16 10 6 8 8 9 10 8 7 8 10 10 7 3 6 4 2 2 2 2 4 5 4 6 3 6 4 1 2 3 6 6 3 3 4 12 8 6 6 1 3 5 4
19 21 14 14 13 10 12 14 14 17 12 12 8 11 8 9 2 6 6 2 1 2 3 3 3 3 5 4 6 7 6 4 2 3 1 3 3 3 7 7 1 4 2 3 0 2 2
42 11 3 9 8 10 15 14 17 16 14 11 10 10 9 8 10 7 3 2 4 4 2 2 2 4 4 1 2 2 7 3 7 1 3 4 3 4 3 3 3 4 3 3 3 2 2
55 1 9 11 14 12 15 17 16 14 15 19 22 18 9 6 8 2 3 2 3 4 1 3 3 5 5 4 3 4 6 5 4 5 1 3 4 4 10 9 5 4 3 2 3 5 3
49 9 19 18 16 18 16 18 16 15 17 19 16 14 9 4 2 4 2 5 3 3 4 3 2 3 4 4 4 2 3 5 4 3 1 5 4 4 6 3 4 6 6 1 2 3 4
45 17 20 20 17 15 15 14 12 16 21 18 11 3 6 3 2 3 2 4 5 4 5 5 6 1 4 3 4 3 6 3 6 5 5 3 3 3 3 5 5 5 5 4 1 2 1
45 19 15 15 14 12 12 14 17 21 22 12 5 4 2 4 2 3 4 3 3 4 2 3 4 6 6 5 5 3 4 5 7 6 5 3 4 2 2 3 2 5 6 5 3 7 5
42 17 9 7 7 8 9 12 15 21 8 6 3 2 4 5 2 2 2 3 3 4 5 6 4 5 4 4 2 5 4 4 5 5 5 5 4 3 3 2 2 5 9 6 2 2 6
33 36 17 5 3 2 5 12 17 19 10 5 3 2 1 2 5 3 0 2 3 2 1 4 2 5 2 4 4 4 4 1 5 3 4 3 5 4 2 2 3 5 10 10 4 5 10
27 29 26 16 3 4 6 10 14 15 5 9 1 2 3 2 3 4 3 4 2 3 0 3 1 7 5 5 3 4 4 1 4 2 2 4 3 4 3 4 1 5 7 12 11 7 7
23 20 23 22 15 8 7 8 8 10 7 5 2 2 3 1 4 4 2 1 1 2 6 4 6 6 10 6 6 5 6 5 4 7 3 3 1 1 1 6 3 6 8 8 9 11 12
17 12 14 16 16 14 7 4 8 13 7 6 4 3 3 1 3 3 4 3 2 2 2 3 8 3 6 4 6 4 2 0 1 5 6 4 1 2 2 4 6 1 4 6 5 5 1
12 9 5 7 9 9 9 3 6 14 16 14 4 6 2 2 3 3 2 1 3 3 2 2 7 4 2 4 6 7 3 2 3 5 4 4 2 1 3 4 2 3 2 1 6 5 6
8 5 4 5 6 6 9 11 16 14 6 1 2 4 3 1 5 5 2 3 3 3 1 3 3 3 4 4 3 3 2 2 1 2 4 4 2 1 2 1 2 4 4 4 1 4 4
7 8 4 7 10 10 6 3 10 16 16 5 5 6 4 1 4 2 6 4 4 3 4 2 2 3 4 2 2 1 1 1 1 2 2 5 3 1 1 1 2 2 4 3 2 0 6
8 9 9 10 18 17 13 6 4 9 17 11 10 9 5 2 0 4 3 3 1 2 3 3 3 2 1 2 1 1 1 1 1 3 1 1 2 3 4 3 2 5 6 2 2 5 6
11 14 13 15 17 18 23 15 5 3 11 16 6 15 6 3 1 3 3 3 1 2 2 2 2 2 1 1 0 0 2 0 2 2 2 2 1 4 1 2 4 6 3 4 4 4 6
11 14 13 7 12 16 18 12 7 2 6 12 4 10 7 3 3 3 2 1 3 4 2 2 1 1 0 1 1 1 3 2 2 3 1 2 3 2 2 4 1 7 3 4 4 5 4
Wind_Direction
317 313 308 307 300 294 292 289 293 297 302 314 316 319 320 317 312 294 247 179 180 174 170 176 168 194 220 200 301 137 132 128 131 100 298 313 304 292 261 271 280 271 281 281 284 277 281
321 317 313 311 306 301 296 289 283 288 291 304 313 317 319 317 311 310 181 177 168 174 157 151 158 172 230 142 91 135 158 131 203 181 294 286 292 330 325 306 301 303 301 295 292 288 278
322 318 316 317 310 305 301 299 296 284 288 293 305 313 316 322 313 290 170 157 155 151 152 152 164 167 224 95 105 163 162 167 168 225 319 333 327 327 325 304 331 322 305 291 265 262 267
323 320 315 316 311 311 307 299 297 296 290 293 298 307 315 318 322 146 159 149 151 151 160 157 166 201 260 117 151 175 173 178 184 238 339 330 350 292 275 335 309 286 283 271 255 246 238
325 322 320 316 313 312 308 302 300 298 298 294 293 303 314 312 298 293 153 140 132 138 141 149 147 235 127 120 186 195 197 199 197 190 226 251 257 253 232 247 272 234 268 256 279 233 238
328 326 325 322 314 315 307 297 289 295 303 289 294 307 318 314 279 184 137 127 126 117 136 138 133 223 197 140 135 143 178 213 265 196 210 249 228 278 235 228 237 239 279 281 274 271 225
331 327 326 315 317 318 312 309 300 297 297 281 298 317 332 331 143 147 128 125 142 119 203 181 166 87 141 101 131 184 182 190 236 252 246 226 219 214 224 229 254 278 282 278 281 267 276
333 331 338 322 311 303 310 310 319 298 281 279 285 328 343 0 130 139 135 225 25 71 139 257 90 308 237 80 215 176 145 190 218 229 245 244 243 244 260 281 279 263 271 268 283 316 253
336 334 331 331 337 315 302 311 311 282 261 280 307 322 322 313 143 150 133 277 350 344 149 144 219 243 99 187 254 147 156 196 263 241 228 244 237 13 220 252 279 256 250 255 259 315 262
345 344 345 349 343 350 337 348 215 229 211 242 344 320 304 150 147 154 206 227 357 323 118 122 201 121 138 201 344 160 141 238 180 285 280 254 270 268 271 269 262 266 307 267 246 258 244
347 349 352 342 353 359 51 320 250 156 139 70 66 66 103 157 142 153 265 188 305 324 115 190 125 128 141 172 304 158 128 119 241 229 203 51 268 224 243 245 262 256 276 280 247 259 251
341 339 353 356 3 14 48 119 138 128 110 76 76 54 117 83 92 153 146 178 283 41 115 195 136 178 190 196 227 132 147 133 232 249 208 245 245 248 254 296 272 340 325 267 242 225 198
302 340 343 360 18 53 99 114 108 102 86 103 83 66 103 50 42 116 119 206 115 13 246 155 178 173 235 174 197 203 172 208 269 295 293 232 223 239 228 307 69 48 258 233 135 37 39
351 233 344 36 78 83 90 111 101 97 88 96 95 107 79 73 140 158 296 254 53 91 51 58 114 197 256 152 187 252 167 198 201 265 306 4 319 335 49 198 252 266 271 13 30 57 57
1 42 141 103 117 107 104 105 109 107 97 102 101 92 63 72 153 174 286 25 31 28 21 121 163 247 166 179 282 237 93 19 69 25 9 341 274 264 228 259 280 336 62 241 297 141 96
11 81 141 122 128 122 121 130 131 123 114 112 93 70 35 97 162 332 266 78 88 12 343 290 284 312 79 38 209 285 78 14 352 67 6 347 303 231 283 267 233 234 314 207 198 10 43
20 98 133 134 135 135 139 148 145 129 127 119 71 74 24 118 301 252 32 61 73 59 7 332 352 37 70 59 353 43 14 80 3 330 277 240 253 303 256 32 343 341 353 328 275 230 83
30 100 115 141 137 140 137 142 142 137 140 87 58 71 122 358 286 263 47 7 271 21 184 274 280 13 22 9 25 89 74 353 356 327 315 58 298 4 264 104 242 259 330 336 67 340 34
33 55 87 95 126 124 115 134 144 144 101 83 71 91 257 319 359 59 137 95 358 10 26 344 37 18 339 33 84 41 56 309 18 14 360 341 350 332 314 129 347 7 359 343 345 322 7
42 42 54 99 123 133 135 147 158 155 78 24 135 105 297 266 279 302 65 55 113 169 320 321 332 257 303 65 46 59 58 42 310 22 296 269 38 37 119 142 296 344 6 9 57 64 79
44 51 48 54 78 176 167 166 171 172 49 336 79 123 208 160 252 73 4 343 102 49 6 297 44 15 346 33 81 59 24 261 199 199 270 24 67 33 55 84 345 31 34 19 48 108 85
36 51 58 56 65 111 161 173 181 209 264 299 330 151 236 158 127 151 162 203 148 96 358 15 61 23 33 58 30 14 338 10 43 311 33 323 122 348 356 3 65 64 34 61 17 70 90
38 47 56 59 64 64 87 215 250 219 267 292 332 292 297 268 198 215 178 123 143 325 129 24 331 342 63 30 5 352 40 102 51 356 343 6 155 21 303 329 309 105 18 51 99 32 80
26 36 92 93 96 86 69 43 277 263 263 281 312 299 253 214 221 215 138 323 193 56 357 59 2 345 35 313 301 272 252 287 74 18 4 330 47 324 282 325 16 192 51 2 106 107 97
19 10 350 205 164 135 99 62 38 25 357 291 307 315 297 181 216 217 185 229 99 173 59 56 38 331 335 303 298 286 231 246 138 32 1 3 301 22 53 272 270 159 182 177 192 163 165
339 353 333 247 227 197 180 78 23 20 24 22 4 337 292 194 226 252 183 198 202 182 164 105 142 260 289 265 265 286 355 341 280 249 282 311 294 45 36 298 252 106 115 76 94 141 147
316 321 306 244 225 230 209 223 340 23 30 33 11 355 304 302 37 330 208 210 32 326 83 134 176 225 192 306 298 317 350 81 272 293 125 271 284 222 256 256 296 130 129 94 87 219 148
312 321 313 283 243 229 236 230 221 65 37 31 21 13 0 335 60 332 356 315 236 258 177 132 104 250 226 263 185 254 282 98 315 224 253 258 197 210 149 261 291 129 67 191 162 111 135
320 331 327 273 233 223 220 214 182 184 5 16 40 2 8 13 353 5 337 292 350 0 353 29 260 339 65 333 287 336 250 180 258 274 314 290 190 236 200 224 130 178 83 122 142 157 145